Regional Weather Roundup
Issued by NWS

Home | Current Version | Previous Version | Text Only | Print | Product List | Glossary On
Versions: 1 2 3 4 5 6 7 8 9 10 11 12 13 14 15 16 17 18 19 20 21 22 23 24 25 26 27 28 29 30 31 32 33 34 35 36 37 38 39 40 41 42 43 44 45 46 47 48 49 50
000
ASUS45 KCYS 020710
RWRWY

WYOMING REGIONAL WEATHER ROUNDUP
NATIONAL WEATHER SERVICE CHEYENNE WY
100 AM MDT WED SEP 02 2015

NOTE:  "FAIR" INDICATES FEW OR NO CLOUDS BELOW 12,000 FEET
WITH NO SIGNIFICANT WEATHER AND/OR OBSTRUCTIONS TO VISIBILITY.

WYZ001-020800-
YELLOWSTONE NATIONAL PARK

CITY           SKY/WX    TMP DP  RH WIND       PRES   REMARKS
LK YELLOWSTONE   N/A     42  30  62 NW3       30.17S
W YELLOWSTONE  NOT AVBL

$$
WYZ002>013-054>058-071-098>099-020800-
NORTHERN WYOMING

CITY           SKY/WX    TMP DP  RH WIND       PRES   REMARKS
JACKSON        FAIR      52  37  58 CALM      30.07S
CODY           FAIR      68  28  22 SW10      29.92S
GREYBULL       FAIR      71  38  29 SE3       29.84S
WORLAND        FAIR      67  40  37 SE9       29.87S
SHERIDAN       FAIR      60  38  43 SE3       29.84R
BUFFALO        FAIR      75  37  25 SW16      29.92F
GILLETTE       FAIR      76  39  26 S20       29.88F
HULETT         FAIR      72  39  30 CALM      29.91F
NEWCASTLE        N/A     64  41  42 MISG      29.94F

$$
WYZ014>020-022>026-101>103-020800-
CENTRAL WYOMING

CITY           SKY/WX    TMP DP  RH WIND       PRES   REMARKS
BIG PINEY      FAIR      48  31  51 NW6       30.16S
PINEDALE       FAIR      52  36  54 CALM      30.19R
DUBOIS         FAIR      50  30  46 NW13      30.13S
LANDER         FAIR      74  37  26 VRB5      30.01S
RIVERTON       FAIR      70  37  29 S9        30.02R
CASPER         FAIR      70  39  32 SW15      30.03S
DOUGLAS        FAIR      73  38  27 W7        30.00S

$$
WYZ021-027>030-104>119-020800-
SOUTHERN WYOMING

CITY           SKY/WX    TMP DP  RH WIND       PRES   REMARKS
EVANSTON       FAIR      61  40  45 S6        30.17F
KEMMERER       FAIR      59  37  44 S3        30.18S
FORT BRIDGER   SUNNY     59  41  51 SW9       30.20S
ROCK SPRINGS   FAIR      58  42  55 S8        30.17S
DIXON          FAIR      54  47  75 E5        30.24S
RAWLINS        FAIR      63  39  41 SW18G26   30.18S
SARATOGA       FAIR      55  43  62 SE14      30.23S
LARAMIE        FAIR      54  42  64 S15       30.21S
CHEYENNE       FAIR      59  40  49 SW8       30.13R
TORRINGTON     FAIR      65  48  54 CALM      29.96R
PINE BLUFFS    FAIR      61  37  41 SW6       30.07S

$$


USA.gov is the U.S. government's official web portal to all federal, state and local government web resources and services.